Lincoln, NE

7:55 PM CDT on September 28, 2016 (GMT -0500)
Lincoln Municipal

Weather History for KLNK - February, 2013

Change the Weather History Date:

Thursday, February 28, 2013

  Actual Average Record
Temperature  
Mean Temperature 30 °F 34 °F  
Max Temperature 33 °F 45 °F 78 °F (1972)
Min Temperature 26 °F 22 °F -12 °F (1962)
Degree Days  
Heating Degree Days 35 31  
Month to date heating degree days 973 1006  
Since 1 July heating degree days 4628 4703  
Cooling Degree Days 0 0  
Month to date cooling degree days 0 0  
Year to date cooling degree days 0 0  
Moisture  
Dew Point 22 °F    
Average Humidity 72    
Maximum Humidity 81    
Minimum Humidity 63    
Precipitation  
Precipitation 0.00 in 0.03 in 1.71 in (1951)
Month to date precipitation 0.54 0.77  
Year to date precipitation 1.27 1.41  
Snow  
Snow 0.00 in 0.20 in - ()
Month to date snowfall 5.5 5.6  
Since 1 July snowfall 16.8 19.7  
Snow Depth 1.00 in    
Sea Level Pressure  
Sea Level Pressure 30.24 in    
Wind  
Wind Speed 16 mph (North)    
Max Wind Speed 25 mph    
Max Gust Speed 31 mph    
Visibility 10 miles    
Events      
T = Trace of Precipitation, MM = Missing Value Source: NWS Daily Summary

Daily Weather History Graph

Daily Weather History Graph

Search for Another Location

Airport or City:

Trip Planner

Search our weather history database for the weather conditions in past years. The results will help you decide how hot, cold, wet, or windy it might be!

Date:

Astronomy

Feb. 28, 2013 Rise Set
Actual Time 7:02 AM CST 6:17 PM CST
Civil Twilight 6:34 AM CST 6:44 PM CST
Nautical Twilight 6:02 AM CST 7:16 PM CST
Astronomical Twilight 5:31 AM CST 7:48 PM CST
Moon 9:47 PM CST (2/28) 8:10 AM CST (2/28)
Length of Visible Light 12h 10m
Length of Day
11h 15m
Waning Gibbous, 90% of the Moon is Illuminated
Feb 28
Waning Gibbous
Mar 4
Last Quarter
Mar 11
New
Mar 19
First Quarter
Mar 27
Full

Hourly Weather History & Observations

Time (CST) Temp. Windchill Dew Point Humidity Pressure Visibility Wind Dir Wind Speed Gust Speed Precip Events Conditions
12:54 AM 32.0 °F 19.2 °F 24.1 °F 73% 30.15 in 8.0 mi NNW 23.0 mph 31.1 mph N/A   Overcast
1:54 AM 30.9 °F 18.4 °F 24.1 °F 76% 30.15 in 10.0 mi North 20.7 mph - N/A   Overcast
2:40 AM 30.2 °F 18.9 °F 23.0 °F 75% 30.14 in 10.0 mi North 16.1 mph - N/A   Overcast
2:54 AM 28.9 °F 18.6 °F 23.0 °F 78% 30.17 in 9.0 mi North 12.7 mph - N/A   Overcast
3:39 AM 28.4 °F 17.0 °F 23.0 °F 80% 30.14 in 9.0 mi NNW 15.0 mph - N/A   Overcast
3:54 AM 28.9 °F 16.5 °F 23.0 °F 78% 30.18 in 9.0 mi NNW 18.4 mph - N/A   Overcast
4:54 AM 28.0 °F 15.3 °F 21.9 °F 78% 30.19 in 10.0 mi NNW 18.4 mph 24.2 mph N/A   Overcast
5:54 AM 28.0 °F 15.7 °F 21.9 °F 78% 30.21 in 10.0 mi NNW 17.3 mph - N/A   Overcast
6:54 AM 28.0 °F 15.3 °F 21.9 °F 78% 30.23 in 10.0 mi North 18.4 mph 25.3 mph N/A   Overcast
7:54 AM 28.0 °F 15.3 °F 21.9 °F 78% 30.24 in 8.0 mi NNW 18.4 mph - N/A   Overcast
8:54 AM 28.0 °F 17.0 °F 21.9 °F 78% 30.26 in 8.0 mi NNW 13.8 mph - N/A   Overcast
9:54 AM 28.9 °F 17.3 °F 21.9 °F 75% 30.26 in 9.0 mi North 16.1 mph - N/A   Overcast
10:13 AM 30.2 °F 18.5 °F 21.2 °F 69% 30.22 in 10.0 mi North 17.3 mph - N/A   Overcast
10:54 AM 30.0 °F 18.7 °F 21.9 °F 72% 30.27 in 9.0 mi NNW 16.1 mph - N/A   Overcast
11:54 AM 30.9 °F 20.2 °F 23.0 °F 72% 30.27 in 10.0 mi North 15.0 mph - N/A   Overcast
12:54 PM 33.1 °F 22.2 °F 23.0 °F 66% 30.26 in 10.0 mi North 17.3 mph - N/A   Overcast
1:54 PM 33.1 °F 23.4 °F 23.0 °F 66% 30.25 in 10.0 mi North 13.8 mph - N/A   Overcast
2:54 PM 32.0 °F 21.6 °F 23.0 °F 69% 30.25 in 10.0 mi North 15.0 mph - N/A   Overcast
3:54 PM 32.0 °F 22.1 °F 23.0 °F 69% 30.25 in 10.0 mi NNW 13.8 mph - N/A   Overcast
4:54 PM 32.0 °F 21.6 °F 21.9 °F 66% 30.25 in 10.0 mi North 15.0 mph - N/A   Overcast
5:54 PM 30.0 °F 17.9 °F 21.0 °F 69% 30.26 in 10.0 mi North 18.4 mph - N/A   Overcast
6:54 PM 28.9 °F 19.2 °F 21.0 °F 72% 30.28 in 10.0 mi North 11.5 mph - N/A   Overcast
7:54 PM 27.0 °F 17.3 °F 21.0 °F 78% 30.30 in 10.0 mi North 10.4 mph - N/A   Overcast
8:54 PM 27.0 °F 17.3 °F 19.9 °F 75% 30.30 in 10.0 mi North 10.4 mph - N/A   Overcast
9:54 PM 26.1 °F 15.6 °F 19.9 °F 78% 30.30 in 10.0 mi North 11.5 mph - N/A   Overcast
10:54 PM 27.0 °F 14.7 °F 19.9 °F 75% 30.29 in 10.0 mi North 16.1 mph - N/A   Overcast
11:54 PM 26.1 °F 14.5 °F 19.0 °F 75% 30.28 in 10.0 mi North 13.8 mph - N/A   Overcast